"Pseudo-MPEC" for C294672

Created 2020 Feb 28 3:07:11 UT using Find_Orb

Click here for an explanation of pseudo-MPECs

 
 Astrometry: 
     C294672  C2020 02 26.21527 10 19 29.54 +10 53 18.0    ~2Q67 19.6 GVNEOCPG96
     C294672  C2020 02 26.22084 10 19 30.00 +10 50 54.7    ~2Q67 19.3 GVNEOCPG96
     C294672  C2020 02 26.22639 10 19 30.42 +10 48 31.3    ~2Q67 19.4 GVNEOCPG96
     C294672  C2020 02 26.23195 10 19 30.87 +10 46 07.4    ~2Q67 19.5 GVNEOCPG96
     C294672  C2020 02 26.27541 10 19 34.15 +10 27 17.3    ~2Q6q 19.0 GVNEOCPI52
     C294672  C2020 02 26.27566 10 19 34.13 +10 27 10.7    ~2Q6q 19.2 GVNEOCPI52
     C294672  C2020 02 26.27590 10 19 34.17 +10 27 05.3    ~2Q6q 19.1 GVNEOCPI52
     C294672  C2020 02 26.27615 10 19 34.17 +10 26 58.1    ~2Q6q 19.1 GVNEOCPI52
     C294672 KC2020 02 260WnuUN#.Af+qKttOWA*SC9N?X[%Eo7/M_*(g-kbMvYxK-'((15KJK63
     C294672 KC2020 02 26dDDv%IAu:Py4*fAu)nLbFQJAstrometryMYR8oXc3-/'0+VK52$JK63
     C294672 KC2020 02 26=EklN:r6`I`h)mRKi?MPN.aYeredacted;fowj?n5d;c$3T?7n-tK63
     C294672 KC2020 02 26.96361910 21 24.28 +05 04 10.1    ~2R07 19.3 GVNEOCPC95
     C294672 KC2020 02 26.97661910 21 25.57 +04 57 39.1    ~2R07 19.9 GVNEOCPC95
     C294672 KC2020 02 27a32WE9-sHH-gclick4VYugH9(fro@7,hxZP1`B+VP%$RfkABcqPHJ04
     C294672 KC2020 02 270Xh\(.MhwKI'7/CY;yct#`H](27Sb9=u(#jMkAS:Hj$l#?kg9I]SJ04
     C294672 KC2020 02 27qt[]1hF$+u`+xQ3Crf8A0g3[2TN[7'-ejP*jU5e;u=F.;?NS:^I[J04
     C294672 pC2020 02 27K*m2)q967/Zg9Kv(jl#b8e#19V%Q%`#c.]O7.BMEQa3Df/LWU*?nL01
     C294672 pC2020 02 27IBY=R_n1yKN-.#D=EqP3Oty9Vn*O.KvK#5sh4EpB-sfJr8AHKJvJL01
     C294672 pC2020 02 27cw[2[0(i6X:mm4\\3R$@jER\f!a6w2TNG@01HyG[n;(\Qdo]hereL01
     C294672  C2020 02 27.16106 10 22 08.45 +03 23 58.8    ~2R4M 19.2 GVNEOCPI52
     C294672  C2020 02 27.16144 10 22 08.54 +03 23 46.9    ~2R4M 19.1 GVNEOCPI52
     C294672  C2020 02 27.16183 10 22 08.53 +03 23 35.2    ~2R4M 19.1 GVNEOCPI52
     C294672  C2020 02 27.16222 10 22 08.63 +03 23 22.5    ~2R4M 19.6 GVNEOCPI52
     C294672 KC2020 02 27hic34oq1kHCEwDeaUg`#.r+DIom,^]JKqftL7+q9(6L[w(8_%W0E734
     C294672 KC2020 02 27Y8fqu6BGqMmD-+:w1OOmQAR0A/tfiTYVK.lHUI?\puWZtUlI*_!%734
     C294672 KC2020 02 27leFU`gE:FU?T!gd$`Fu\MR!a.KEHLJ:kqoQ^nE*Ie^%,)mIXOP1k734
     C294672 KC2020 02 27QrT(Bt9eKwZK[]6tvvFiE$rOid')4tfV6`pUeGi6]MWi#-iF-H?\734
     C294672 KC2020 02 277]=-!GAOgxeMHt8od)R7/cZfK$gXL,n=i2KD3lsD8Ml2?bPnAf2R734
     C294672  C2020 02 27.27603 10 22 20.55 +02 23 37.2    ~2R7M 19.3 GVNEOCPG96
     C294672  C2020 02 27.28109 10 22 21.03 +02 20 56.3    ~2R7M 19.6 GVNEOCPG96
     C294672  C2020 02 27.28615 10 22 21.50 +02 18 14.3    ~2R7M 19.3 GVNEOCPG96
     C294672  C2020 02 27.28893 10 22 21.68 +02 16 46.0    ~2R7b 19.3 GVNEOCP703
     C294672  C2020 02 27.29120 10 22 21.97 +02 15 32.5    ~2R7M 19.2 GVNEOCPG96
     C294672  C2020 02 27.29421 10 22 22.07 +02 13 55.2    ~2R7b 19.1 GVNEOCP703
     C294672  C2020 02 27.29950 10 22 22.60 +02 11 06.9    ~2R7b 19.0 GVNEOCP703
     C294672  C2020 02 27.30480 10 22 23.16 +02 08 18.3    ~2R7b 19.5 GVNEOCP703
     C294672 KC2020 02 27]Z?o`%c#Hu(lbO?bs15fx/(N1PpwL*y,#HF)2IQa,xJ[=2.)N'eVJ69
     C294672 KC2020 02 27/Pa%N#Q2#75K]7apSGHW\?ijHE?)dO9;6C:JUq;jvSc4n3A;[xwAJ69
     C294672 KC2020 02 27AIg`,+6EFLi@hx7]i46R*ewyuPr#]X0iHUiOMYo;W-SuC,QNKN'KJ69
     C294672 KC2020 02 27.93871 10 24 29.91 -03 50 15.6    ~2RMq 18.9 VqNEOCPI93
     C294672 KC2020 02 27.94080 10 24 30.21 -03 51 30.6    ~2RMq 19.2 VqNEOCPI93
     C294672 KC2020 02 27.94288 10 24 30.50 -03 52 44.1    ~2RMq 18.9 VqNEOCPI93
     C294672 KC2020 02 27.98946810 24 36.55 -04 20 54.0    ~2S0M 19.1 GVNEOCPJ95
     C294672 KC2020 02 27IXL?PO#b9F1I5`vH/lZpEfor4EhAvplJxM0jm`sJgp36_M2b7$B-Z99
     C294672 KC2020 02 27.99268410 24 37.01 -04 22 49.5    ~2S0M 19.4 GVNEOCPJ95
     C294672 KC2020 02 27#VSlQ)DT:b[$,(YRAF.\6I$M'4+0gQbKm,%bH:f.C+gOLhR4$nJMZ99
     C294672 KC2020 02 28LQULf:\-kDX^*7,Rg:OL\$RJVfN$kVPBeV.%9pJ7N.vfc(rPCGVYX31
     C294672 KC2020 02 28%.)\N1:?AE,UJent5`explanationIx\ia;k;!tAc#W7ir10qMqLX31
     C294672 KC2020 02 28w6uLL[u$q?iYd+ue%N]N?LFP6q#aCUx'$SV\$t!nS?S(^Xx2;LQAX31

Station data:
(703) Catalina Sky Survey  (N32.417006 W110.732640)  US/Arizona.  Observers
   T. A. Pruyne, B. M. Africano, E. J. Christensen, G. A. Farneth, D. C.
   Fuls, A. R. Gibbs, A. D. Grauer, H. Gröller, J. A. Johnson, R. A.
   Kowalski, S. M. Larson, G. J. Leonard, D. Rankin, R. L. Seaman, F. C.
   Shelly. 0.68 m Schmidt + 10K CCD.
(734) Farpoint Observatory, Eskridge  (N38.890107 W96.001400)  US/Kansas.
   Observer G. Hug. 0.69-m reflector + CCD.
(C95) SATINO Remote Observatory, Haute Provence  (N43.932042 E5.712390)
   France. 0.60-m f/3.2 Newtonian reflector + CCD.
(G96) Mt. Lemmon Survey  (N32.442754 W110.788720)  US/Arizona.  Observers T.
   A. Pruyne, B. M. Africano, E. J. Christensen, G. A. Farneth, D. C. Fuls,
   A. R. Gibbs, A. D. Grauer, H. Gröller, J. A. Johnson, R. A. Kowalski, S.
   M. Larson, G. J. Leonard, D. Rankin, R. L. Seaman, F. C. Shelly. 1.5-m
   reflector + 10K CCD.
(I52) Steward Observatory, Mt. Lemmon Station  (N32.442547 W110.788920)
   US/Arizona.  Observers T. A. Pruyne, B. M. Africano, E. J. Christensen, G.
   A. Farneth, D. C. Fuls, A. R. Gibbs, A. D. Grauer, H. Gröller, J. A.
   Johnson, R. A. Kowalski, S. M. Larson, G. J. Leonard, D. Rankin, R. L.
   Seaman, F. C. Shelly. 1.0-m reflector + CCD.
(I93) St Pardon de Conques  (N44.558710 W0.203000)  France.  Observer F.
   Losse. 0.40-m f/3.7 reflector + CCD.
(J04) ESA Optical Ground Station, Tenerife  (N28.300924 W16.511830)  Canary
   Islands (Spain).  Observer D. Abreu. Measurers M. Micheli, D. Koschny, E.
   Schwab, M. Busch, A. Knöfel. 1.0-m f/4.4 reflector + CCD.
(J69) North Observatory, Clanfield  (N50.938989 W1.019660)  UK.
(J95) Great Shefford  (N51.474969 W1.447003)  UK.  Observer P. Birtwhistle.
   0.40-m f/6.0 Schmidt-Cassegrain + CCD.
(K63) G. Pascoli Observatory, Castelvecchio Pascoli  (N44.082410 E10.462000)
   Italy.
(L01) Višnjan Observatory, Tičan  (N45.290900 E13.749300)  Croatia.
   Observers K. Korlević, E. Pettarin. Measurer E. Pettarin. 1.0-m f/2.9
   reflector + CCD.
(X31) Galileo Galilei Observatory, Oro Verde  (S31.823022 W60.520660)
   Argentina.
(Z99) Clixby Observatory, Cleethorpes  (N53.546062 W0.021260)  UK.

Orbital elements:  C294672
   Perihelion 2020 Mar 22.805286 +/- 0.00374 TT = 19:19:36 (JD 2458931.305286)
Epoch 2020 Feb 28.0 TT = JDT 2458907.5   Earth MOID: 0.0294   AutoNEOCP
M 351.34573901 +/- 0.015            (J2000 ecliptic)
n   0.36354366 +/- 0.000591         Peri.  210.68939 +/- 0.0027
a   1.94430770 +/- 0.00211          Node   336.70948 +/- 0.00012
e   0.4957110 +/- 0.00055           Incl.   12.51562 +/- 0.009
P   2.71/990.23d           H 26.2   G  0.15   U  7.7  
q 0.98049293 +/- 9.91e-6    Q 2.90812246 +/- 0.00422
From 49 observations 2020 Feb. 26-28 (43.8 hr); mean residual 0".54
Residuals in arcseconds: 
200226 G96  .21+  .39-    200227 L01  .44+  .34-    200227 703  1.6-  .56-    
200226 G96  .27+  .12-    200227 L01  .29-  .24+    200227 703  .52-  .59+    
200226 G96  .12-  .26-    200227 I52  .12-  .01+    200227 J69  1.1-  .75+    
200226 G96  .03+  .44-    200227 I52  .52+  .06-    200227 J69  .14-  .30-    
200226 I52  .58+  .10+    200227 I52  .35-  .38+    200227 J69  .64+  1.2-    
200226 I52  .02+  .04+    200227 I52  .43+  .17-    200227 I93  .63-  .10+    
200226 I52  .36+  .92+    200227 734  .10-  .40-    200227 I93  .19-  .28-    
200226 I52  .09+  .26+    200227 734  .33-  .91-    200227 I93  .12+  .51+    
200226 K63  .33+  .84+    200227 734  .23+  .84-    200227 J95  .05-  .02+    
200226 K63  .23-  .39+    200227 734  .03+  .53-    200227 Z99  .03-  .34-    
200226 K63  .26+  .27-    200227 734  .67+  .97+    200227 J95  .30+  .17+    
200226 C95  .14+  .44-    200227 G96  .07-  .23+    200227 Z99  .05+  .24+    
200226 C95  .53+  .23-    200227 G96  .09+  .66+    200228 X31  .24-  .11+    
200227 J04  .17+  .08+    200227 G96  .12+  .14+    200228 X31  .79+  .47-    
200227 J04  .02+  .22+    200227 703  .82-  .52+    200228 X31  .53+  .65-    
200227 J04  .10+  .01+    200227 G96  .18+  .34-    
200227 L01  .48-  .78+    200227 703  2.3-  1.5-    

Ephemerides (geocentric):
Date (UTC) HH   RA              Dec         delta   r     elong  mag " sig PA
---- -- -- --  -------------   -----------  ------ ------ -----  --- ---- ---
2020 02 28 03  10 25 03.962   -05 39 08.48  .03240 1.0218 165.5 19.6 .174 169
2020 02 28 04  10 25 12.800   -06 04 39.64  .03230 1.0217 165.1 19.6 .175 169
2020 02 28 05  10 25 21.708   -06 30 19.96  .03220 1.0215 164.7 19.6 .176 169
2020 02 28 06  10 25 30.686   -06 56 09.35  .03211 1.0214 164.3 19.6 .177 169
2020 02 28 07  10 25 39.736   -07 22 07.71  .03202 1.0212 163.9 19.6 .178 169
2020 02 28 08  10 25 48.858   -07 48 14.93  .03193 1.0211 163.5 19.7 .179 169
2020 02 28 09  10 25 58.052   -08 14 30.90  .03184 1.0210 163.1 19.7 .180 169
2020 02 28 10  10 26 07.320   -08 40 55.50  .03175 1.0208 162.6 19.7 .180 170
2020 02 28 11  10 26 16.663   -09 07 28.61  .03166 1.0207 162.2 19.7 .181 170
2020 02 28 12  10 26 26.081   -09 34 10.09  .03158 1.0205 161.8 19.7 .181 170
2020 02 28 13  10 26 35.576   -10 00 59.82  .03150 1.0204 161.4 19.7 .182 170
2020 02 28 14  10 26 45.147   -10 27 57.65  .03142 1.0203 161.0 19.7 .182 170
2020 02 28 15  10 26 54.796   -10 55 03.44  .03134 1.0201 160.5 19.7 .183 170
2020 02 28 16  10 27 04.525   -11 22 17.04  .03127 1.0200 160.1 19.7 .183 171
2020 02 28 17  10 27 14.333   -11 49 38.29  .03120 1.0198 159.7 19.7 .183 171
2020 02 28 18  10 27 24.222   -12 17 07.03  .03112 1.0197 159.3 19.7 .183 171
2020 02 28 19  10 27 34.192   -12 44 43.09  .03106 1.0196 158.8 19.7 .183 171
2020 02 28 20  10 27 44.245   -13 12 26.31  .03099 1.0194 158.4 19.7 .183 171
2020 02 28 21  10 27 54.382   -13 40 16.49  .03092 1.0193 157.9 19.8 .182 171
2020 02 28 22  10 28 04.603   -14 08 13.47  .03086 1.0192 157.5 19.8 .182 172
